{"data":{"norad_id":62573,"epoch":"2026-05-24T22:01:15.316896Z","epoch_age_seconds":75368,"freshness":"FRESH","line1":"1 62573U 25006V   26144.91753839  .00012629  00000+0  46728-3 0  9997","line2":"2 62573  42.9987 221.8241 0001796 272.0351  88.0295 15.27605242 76523","mean_motion":15.27605242,"eccentricity":0.0001796,"inclination_deg":42.9987,"raan_deg":221.8241,"arg_perigee_deg":272.0351,"mean_anomaly_deg":88.0295,"bstar":0.00046728,"rev_number":7652,"period_min":94.265191059092,"perigee_km":481.74125800346,"apogee_km":484.20576889989,"semimajor_km":6861.1105134517,"source":"CELESTRAK","updated_at":"2026-05-25T13:38:19.732317Z"}}